Terminal Aerodrome Forecast
Issued by NWS Columbia, SC

Home | Current Version | Previous Version | Text Only | Print | Product List | Glossary On
Versions: 1 2 3 4 5 6 7 8 9 10 11 12 13 14 15 16 17 18 19 20 21 22 23 24 25 26 27 28 29 30 31 32 33 34 35 36 37 38 39 40 41 42 43 44 45 46 47 48 49
000
FTUS42 KCAE 191500 AAA
TAFAGS
TAF AMD
KAGS 191559Z 1916/2012 16010G15KT P6SM VCSH BKN009
     FM191800 18010G15KT 3SM SHRA VCTS OVC012CB
      TEMPO 1919/1923 VRB15KT 1 1/2SM SHRA OVC008
     FM200300 21008KT P6SM OVC007=

USA.gov is the U.S. government's official web portal to all federal, state and local government web resources and services.